Location: St. Louis
(38.6270°N, 90.1994°W)
Time: 00:25:41
(UTC-06:00)

Courier 1B Rocket - Pass Details

Date: 07 December 2021
Orbit: 920 x 1202 km, 28.2° (Epoch: 16 January)

Event Time Altitude Azimuth Distance (km) Brightness Sun altitude
Rises 03:00:16 0° 254° (WSW) 3,549 - -47.1°
Reaches altitude 10° 03:06:17 10° 210° (SSW) 2,605 - -45.9°
Maximum altitude 03:06:37 10° 207° (SSW) 2,603 - -45.8°
Drops below altitude 10° 03:06:58 10° 203° (SSW) 2,607 - -45.8°
Sets 03:13:03 0° 159° (SSE) 3,590 - -44.6°
